LiveATC.Net - Listen to live air traffic control over the Internet!


ICAO: ENRK  IATA:   Airport: Rakkestad Airport
City: Astorp
Country: Norway   Continent: Europe
ENRY METAR Weather: ENRY 171820Z AUTO 03006KT 9999NDV FEW076/// OVC120/// 10/05 Q1022
ENRK Flight Activity (FlightAware)

ENRK CTAF
Feed Status: DOWN
Last heard on: 2021-06-09 11:28:38 (100 days 7 hours 30 minutes ago)
Archive Access: ENRK CTAF
FacilityFrequency
Rakkestad CTAF122.950

NOTICE

Unauthorized use prohibited. See LiveATC.net Terms of Service


Airport/ARTCC Code
Frequency Search
(e.g., 124.400, 128.75)
Site-wide search
 


Browse Feeds
Top 50 Feeds
HF Oceanic Feeds
Coverage Map
Bad Weather Areas

LiveATC FAQ
Offer LiveATC feed
Contact LiveATC.net
Press Inquiries

LiveATC on iPhone
LiveATC on Android

Windows Phone
Windows 8/10

LiveATC Mobile
(Mobile browser)

ATC Audio Archives
Interesting Recordings

LiveATC Forums


Home Page
About LiveATC.net
Make a Donation
Terms of Use
Privacy Policy

Canadian Air Freqs

AIRMETs/SIGMETs

FAA Airport Status
NAS Status
Arrival Demand


Server Software By:
Icecast.org
Liquidsoap